Weather History for Springfield, MO

Change the Weather History Date:

Friday, August 29, 2014

  Actual Average Record
Temperature  
Mean Temperature 80 °F 76 °F  
Max Temperature 89 °F 87 °F 106 °F (1984)
Min Temperature 71 °F 65 °F 46 °F (1988)
Degree Days  
Heating Degree Days 0 0  
Month to date heating degree days 0 0  
Since 1 June heating degree days 0 9  
Since 1 July heating degree days 0 0  
Cooling Degree Days 15 11  
Month to date cooling degree days 436 379  
Year to date cooling degree days 1215 1167  
Since 1 June cooling degree days 1022 1052  
Growing Degree Days 30 (Base 50)    
Moisture  
Dew Point 65 °F    
Average Humidity 65    
Maximum Humidity 84    
Minimum Humidity 45    
Precipitation  
Precipitation 0.05 in 0.13 in 0.83 in (1975)
Month to date precipitation 1.23 3.28  
Year to date precipitation 21.24 29.84  
Snow  
Snow 0.00 in - - ()
Month to date snowfall 0.0  
Since 1 June snowfall 0.0  
Since 1 July snowfall 0.0  
Snow Depth 0.00 in    
Sea Level Pressure  
Sea Level Pressure 29.88 in    
Wind  
Wind Speed 12 mph (South)    
Max Wind Speed 21 mph    
Max Gust Speed 27 mph    
Visibility 10 miles    
Events Rain , Thunderstorm    
T = Trace of Precipitation, MM = Missing Value Source: NWS Daily Summary

Daily Weather History Graph

Daily Weather History Graph

Search for Another Location

Airport:

Trip Planner

Search our weather history database for the weather conditions in past years. The results will help you decide how hot, cold, wet, or windy it might be!

Date:

Astronomy

Aug. 29, 2014 Rise Set
Actual Time 6:41 AM CDT 7:46 PM CDT
Civil Twilight 6:14 AM CDT 8:13 PM CDT
Nautical Twilight 5:42 AM CDT 8:45 PM CDT
Astronomical Twilight 5:09 AM CDT 9:18 PM CDT
Moon 10:25 AM CDT (8/29) 9:51 PM CDT (8/29)
Length of Visible Light 13h 58m
Length of Day
13h 04m
Waxing Crescent, 15% of the Moon is Illuminated
Aug 29
Waxing Crescent
Sep 2
First Quarter
Sep 8
Full
Sep 15
Last Quarter
Sep 24
New

Hourly Weather History & Observations

Time (CDT) Temp. Heat Index Dew Point Humidity Pressure Visibility Wind Dir Wind Speed Gust Speed Precip Events Conditions
12:52 AM 73.9 °F - 61.0 °F 64% 29.91 in 10.0 mi South 8.1 mph - N/A   Clear
1:52 AM 73.9 °F - 61.0 °F 64% 29.90 in 10.0 mi South 9.2 mph - N/A   Clear
2:52 AM 73.0 °F - 62.1 °F 68% 29.88 in 10.0 mi SSE 10.4 mph - N/A   Clear
3:52 AM 72.0 °F - 62.1 °F 71% 29.88 in 10.0 mi SSE 10.4 mph - N/A   Clear
4:52 AM 71.1 °F - 62.1 °F 73% 29.88 in 10.0 mi SSE 10.4 mph - N/A   Clear
5:52 AM 71.1 °F - 63.0 °F 75% 29.88 in 10.0 mi SSE 9.2 mph - N/A   Clear
6:52 AM 71.1 °F - 63.0 °F 75% 29.89 in 10.0 mi SSE 10.4 mph - N/A   Partly Cloudy
7:52 AM 75.9 °F - 63.0 °F 64% 29.90 in 10.0 mi SSE 13.8 mph - N/A   Mostly Cloudy
8:52 AM 79.0 °F - 64.0 °F 60% 29.89 in 10.0 mi SSE 12.7 mph - N/A   Clear
9:52 AM 82.4 °F 84.6 °F 66.2 °F 58% 29.93 in 10.0 mi SSW 15.0 mph - N/A   Scattered Clouds
10:52 AM 84.9 °F 87.1 °F 66.0 °F 53% 29.89 in 10.0 mi South 13.8 mph - N/A   Mostly Cloudy
11:52 AM 84.9 °F 87.1 °F 66.0 °F 53% 29.89 in 10.0 mi SW 18.4 mph 24.2 mph N/A   Mostly Cloudy
12:52 PM 86.0 °F 88.2 °F 66.0 °F 51% 29.86 in 10.0 mi SW 13.8 mph - N/A   Mostly Cloudy
1:18 PM 75.0 °F - 70.0 °F 84% 29.92 in 5.0 mi WSW 11.5 mph 24.2 mph 0.02 in Rain , Thunderstorm Light Rain
1:52 PM 80.1 °F 83.6 °F 71.1 °F 74% 29.86 in 10.0 mi South 11.5 mph - 0.05 in   Partly Cloudy
2:52 PM 84.2 °F 86.6 °F 66.2 °F 55% 29.87 in 10.0 mi SW 10.4 mph - N/A   Mostly Cloudy
3:52 PM 86.0 °F 86.3 °F 62.1 °F 44% 29.84 in 10.0 mi West 11.5 mph - N/A   Mostly Cloudy
4:52 PM 84.9 °F 85.4 °F 62.1 °F 46% 29.85 in 10.0 mi West 11.5 mph - N/A   Partly Cloudy
5:52 PM 84.0 °F 84.9 °F 63.0 °F 49% 29.84 in 10.0 mi West 5.8 mph - N/A   Scattered Clouds
6:52 PM 84.0 °F 85.4 °F 64.0 °F 51% 29.84 in 10.0 mi West 8.1 mph - N/A   Clear
7:52 PM 79.0 °F - 66.9 °F 66% 29.85 in 10.0 mi South 11.5 mph - N/A   Clear
8:52 PM 75.9 °F - 66.9 °F 74% 29.88 in 10.0 mi South 12.7 mph - N/A   Clear
9:52 PM 73.4 °F - 66.2 °F 78% 29.93 in 10.0 mi South 10.4 mph - N/A   Clear
10:52 PM 73.9 °F - 66.9 °F 79% 29.90 in 10.0 mi South 11.5 mph - N/A   Clear
11:52 PM 73.0 °F - 68.0 °F 84% 29.91 in 10.0 mi SSE 10.4 mph - N/A   Clear